Home > Weather > Luanda > Past weeks

Flag for Angola Weather for the Past 2 Weeks in Luanda, Angola

Now
81 °F

Passing clouds.


Feels Like: 86 °F
Forecast: 81 / 86 °F
Wind: 3 mph from North

Location: Luanda Airport

Current Time: Feb 12, 2016 at 1:04:44 AM

Latest Report: Feb 12, 2016 at 12:00 AM


Visibility: N/A

Pressure: 29.86 "Hg

Humidity: 84%

Dew point: 75 °F

Location of LuandaLocation

Historic Weather in Luanda — Graph

°F

Luanda Temperature Yesterday

Maximum temperature yesterday: 86 °F (at 12:00 PM)
Minimum temperature yesterday: 75 °F (at 1:00 AM)
Average temperature yesterday: 80 °F

High & Low Weather Summary for the Past Weeks

 TemperatureHumidityPressure
High91 °F (Jan 29, 2:00 PM)100% (Feb 8, 6:40 AM)29.95 "Hg (Feb 8, 6:40 AM)
Low73 °F (Feb 8, 8:00 AM)42% (Feb 9, 11:00 PM)29.74 "Hg (Feb 4, 4:00 PM)
Average82 °F80%29.85 "Hg
* Reported Jan 27 11:00 PM — Feb 11 11:00 PM, Luanda, Weather by CustomWeather, © 2016

Note: Actual official high and low records may vary slightly from our data, if they occured in-between our weather recording intervals... More about our weather records

Advertising

Luanda Weather History for the Previous 24 Hours

 ConditionsComfort  
Time TempWeatherWind HumidityBarometerVisibility
11:00 PM
Thu, Feb 11
81 °FPassing clouds.5 mph84%29.83 "HgN/A
10:00 PM82 °FPassing clouds.5 mph79%29.83 "HgN/A
9:00 PM82 °FPassing clouds.5 mph79%29.83 "HgN/A
8:00 PM82 °FPassing clouds.5 mph79%29.80 "HgN/A
7:00 PM82 °FPassing clouds.5 mph79%29.77 "HgN/A
6:00 PM82 °FScattered clouds.7 mph79%29.77 "HgN/A
5:00 PM84 °FScattered clouds.9 mph74%29.77 "HgN/A
4:00 PM84 °FScattered clouds.9 mph74%29.77 "HgN/A
3:00 PM86 °FScattered clouds.5 mph66%29.77 "HgN/A
2:00 PM84 °FPartly sunny.9 mph70%29.83 "HgN/A
1:00 PM84 °FBroken clouds.9 mph70%29.83 "HgN/A
12:00 PM86 °FScattered clouds.5 mph62%29.86 "HgN/A
11:00 AM84 °FBroken clouds.9 mph66%29.86 "HgN/A
10:00 AM81 °FBroken clouds.6 mph84%29.89 "HgN/A
9:00 AM77 °FBroken clouds.3 mph94%29.89 "HgN/A
8:00 AM75 °FBroken clouds.3 mph94%29.89 "Hg6 mi
7:01 AM75 °FRain. Partly sunny.5 mph94%29.86 "Hg2 mi
6:00 AM75 °FPartly cloudy.5 mph94%29.83 "HgN/A
5:00 AM75 °FPassing clouds.5 mph94%29.83 "HgN/A
4:00 AM75 °FPassing clouds.5 mph94%29.83 "HgN/A
3:00 AM75 °FPartly cloudy.5 mph94%29.83 "HgN/A
2:00 AM75 °FPartly cloudy.6 mph94%29.83 "HgN/A
1:00 AM75 °FPassing clouds.6 mph94%29.83 "Hg6 mi
Weather by CustomWeather, © 2016

See weather overviewHow to use our weather pages